Location: Vanderbilt Beach
(26.2700°N, 81.7900°W)
Time: 06:20:41
(UTC-04:00)

Hubble Space Telescope - Visible Passes

Search period start: 30 September 2020 00:00
Search period end: 10 October 2020 00:00
Orbit: 536 x 540 km, 28.5° (Epoch: 29 September)

Date Brightness Start Highest point End Pass type
(mag) Time Alt. Az. Time Alt. Az. Time Alt. Az.
30 Sep 4.1 04:35:35 10° ENE 04:35:35 10° ENE 04:35:37 10° ENE visible
30 Sep 0.9 06:10:55 29° WNW 06:12:50 63° N 06:16:55 10° E visible
01 Oct 0.9 06:00:52 41° WNW 06:02:09 67° N 06:06:15 10° E visible
02 Oct 0.8 05:50:51 59° NW 05:51:28 72° N 05:55:34 10° E visible
03 Oct 0.7 05:40:52 79° NNE 05:40:52 79° NNE 05:44:53 10° E visible
04 Oct 1.3 05:30:55 55° ESE 05:30:55 55° ESE 05:34:11 10° ESE visible
05 Oct 2.2 05:21:02 34° ESE 05:21:02 34° ESE 05:23:27 10° ESE visible
05 Oct 2.2 06:56:54 10° W 07:00:17 24° SSW 07:03:40 10° SSE visible
06 Oct 3.0 05:11:11 21° ESE 05:11:11 21° ESE 05:12:41 10° ESE visible
06 Oct 2.5 06:46:32 10° WSW 06:49:30 19° SSW 06:52:27 10° SSE visible
07 Oct 3.6 05:01:23 13° SE 05:01:23 13° SE 05:01:52 10° ESE visible
07 Oct 2.8 06:36:45 11° WSW 06:38:41 15° SSW 06:41:01 10° S visible
08 Oct 3.0 06:27:00 10° SW 06:27:52 11° SSW 06:29:02 10° SSW visible
